Location: Unspecified
(0.0000°N, 0.0000°E)
Time: 17:18:59
(UTC+00:00)

Vanguard 3 - Pass Details

Date: 09 February 2023
Orbit: 509 x 3249 km, 33.3° (Epoch: 20 March)

Event Time Altitude Azimuth Distance (km) Brightness Sun altitude
Rises 02:16:11 0° 294° (WNW) 6,877 - -56.4°
Reaches altitude 10° 02:20:42 10° 290° (WNW) 6,033 - -55.4°
Maximum altitude 02:39:54 56° 217° (SW) 3,533 - -51.1°
Exits shadow 02:42:05 54° 197° (SSW) 3,516 10.1 -50.6°
Drops below altitude 10° 02:55:52 10° 142° (SE) 5,087 11.6 -47.4°
Sets 02:59:21 0° 137° (SE) 5,784 12.1 -46.6°
